GW5567 Weather Reports


Display with metric or nautical units.
time (UTC)temp
F
wind
direction
speed
MPH
gust
MPH
rain 1hr
in
rain 24hr
in
rain mn
in
humidity
%
barometer
mb
20260505101554 61 176 6.0 11.0 0.00 0.10 0.00 65 1007.1
20260505100055 62 173 5.0 9.0 0.00 0.10 0.00 65 1006.9
20260505094553 63 178 5.0 9.0 0.00 0.10 0.00 63 1006.9
20260505093059 64 175 4.0 9.0 0.00 0.10 0.00 61 1006.8
20260505091614 64 171 5.0 8.0 0.00 0.10 0.00 60 1006.7
20260505090053 64 178 5.0 8.0 0.00 0.10 0.00 60 1006.6
20260505084555 64 176 4.0 9.0 0.00 0.10 0.00 58 1006.5
20260505083100 64 165 5.0 8.0 0.00 0.10 0.00 58 1006.4
20260505081601 63 183 5.0 11.0 0.00 0.10 0.00 60 1006.5
20260505080105 63 173 3.0 10.0 0.00 0.10 0.00 60 1006.5
20260505074551 64 176 4.0 12.0 0.00 0.10 0.00 58 1006.5
20260505073053 64 184 6.0 15.0 0.00 0.10 0.00 58 1006.1
20260505071558 66 173 7.0 17.0 0.00 0.10 0.00 53 1005.8
20260505070055 66 185 8.0 12.0 0.00 0.10 0.00 53 1005.5
20260505064554 66 178 8.0 11.0 0.00 0.10 0.10 54 1005.3
20260505063128 66 178 5.0 10.0 0.00 0.10 0.10 54 1005.3
20260505061633 66 176 7.0 12.0 0.00 0.10 0.10 54 1005.3
20260505060103 67 178 6.0 9.0 0.00 0.10 0.10 54 1005.2
20260505054606 66 177 4.0 7.0 0.00 0.10 0.10 55 1005.3
20260505053055 67 177 5.0 12.0 0.00 0.10 0.10 55 1005.2
20260505051611 67 177 7.0 11.0 0.00 0.10 0.10 54 1005.2
20260505041556 67 178 6.0 10.0 0.00 0.10 0.10 57 1005.1
20260505040107 68 176 5.0 10.0 0.00 0.10 0.10 56 1005.2
20260505034559 69 175 7.0 11.0 0.00 0.10 0.10 55 1004.9
20260505033101 70 184 6.0 11.0 0.00 0.10 0.10 53 1004.8
20260505031602 71 189 5.0 10.0 0.00 0.10 0.10 53 1004.6
20260505030104 75 259 3.0 8.0 0.00 0.10 0.10 46 1004.5
20260505024555 79 306 3.0 5.0 0.00 0.10 0.10 42 1004.5
20260505023057 81 338 0.0 2.0 0.00 0.10 0.10 35 1004.4
20260505021557 82 0 0.0 3.0 0.00 0.10 0.10 35 1004.4
20260505014557 83 0 0.0 2.0 0.00 0.10 0.10 32 1004.7
20260505013107 84 338 1.0 3.0 0.00 0.10 0.10 30 1004.8
20260505011600 83 0 1.0 4.0 0.00 0.10 0.10 31 1004.9
20260505010112 83 347 1.0 3.0 0.00 0.10 0.10 30 1005.0
20260505004555 81 347 1.0 6.0 0.00 0.10 0.10 34 1005.1
20260505003058 82 330 2.0 5.0 0.00 0.10 0.10 32 1005.1
20260505001602 82 329 1.0 5.0 0.00 0.10 0.10 31 1005.2
20260505000100 82 327 2.0 5.0 0.00 0.10 0.10 33 1005.3
20260504234556 82 327 3.0 8.0 0.00 0.10 0.10 31 1005.3
20260504233107 83 300 2.0 5.0 0.00 0.10 0.10 31 1005.4
20260504231600 81 0 1.0 4.0 0.00 0.10 0.10 28 1005.4
20260504230058 81 306 3.0 6.0 0.00 0.10 0.10 32 1005.7
20260504224554 81 296 3.0 5.0 0.00 0.10 0.10 29 1005.7
20260504223058 81 0 0.0 5.0 0.01 0.10 0.10 32 1005.8
20260504221558 80 287 3.0 7.0 0.04 0.10 0.10 34 1006.0
20260504220058 78 285 2.0 7.0 0.06 0.10 0.10 38 1006.2
20260504214603 76 276 3.0 10.0 0.08 0.10 0.10 44 1006.4
20260504213100 76 284 4.0 8.0 0.09 0.09 0.09 45 1006.4
20260504211556 77 273 2.0 8.0 0.06 0.06 0.06 44 1006.6
20260504210109 76 288 3.0 8.0 0.04 0.04 0.04 44 1006.9
20260504204612 77 311 3.0 9.0 0.02 0.02 0.02 46 1007.0
20260504203108 78 317 3.0 9.0 0.00 0.00 0.00 44 1007.0
20260504201557 79 296 3.0 8.0 0.00 0.00 0.00 43 1007.1
20260504200057 79 347 3.0 9.0 0.00 0.00 0.00 44 1007.1
20260504194602 79 234 3.0 7.0 0.00 0.00 0.00 42 1007.1
20260504193059 78 0 1.0 6.0 0.00 0.00 0.00 44 1007.2
20260504191557 78 188 3.0 8.0 0.00 0.00 0.00 42 1007.2
20260504190126 77 218 2.0 5.0 0.00 0.00 0.00 42 1007.4
20260504184555 76 254 2.0 6.0 0.00 0.00 0.00 43 1007.5
20260504183055 75 281 2.0 7.0 0.00 0.00 0.00 49 1007.7
20260504181557 74 244 3.0 5.0 0.00 0.00 0.00 47 1007.9
20260504180055 74 298 2.0 5.0 0.00 0.00 0.00 46 1008.0
20260504174600 73 292 2.0 7.0 0.00 0.00 0.00 47 1007.9
20260504173058 72 286 2.0 8.0 0.00 0.00 0.00 46 1007.7
20260504171556 72 289 3.0 10.0 0.00 0.00 0.00 49 1007.7